TimeEST,TemperatureF,Dew PointF,Humidity,Sea Level PressureIn,VisibilityMPH,Wind Direction,Wind SpeedMPH,Gust SpeedMPH,PrecipitationIn,Events,Conditions,WindDirDegrees,DateUTC
12:51 AM,15.1,12.0,88,30.25,6.0,Calm,Calm,-,N/A,,Mostly Cloudy,0,2013-01-03 05:51:00
1:51 AM,15.1,10.9,84,30.25,6.0,Calm,Calm,-,N/A,,Clear,0,2013-01-03 06:51:00
2:51 AM,10.9,10.0,96,30.25,5.0,SE,3.5,-,N/A,,Clear,130,2013-01-03 07:51:00
3:51 AM,10.9,8.1,88,30.24,5.0,Calm,Calm,-,N/A,,Clear,0,2013-01-03 08:51:00
4:51 AM,10.9,8.1,88,30.23,5.0,Calm,Calm,-,N/A,,Clear,0,2013-01-03 09:51:00
5:51 AM,10.9,8.1,88,30.24,6.0,Calm,Calm,-,N/A,,Clear,0,2013-01-03 10:51:00
6:51 AM,9.0,6.1,88,30.26,6.0,SSE,5.8,-,N/A,,Clear,150,2013-01-03 11:51:00
7:51 AM,12.0,9.0,88,30.26,4.0,SE,3.5,-,N/A,,Scattered Clouds,140,2013-01-03 12:51:00
8:51 AM,12.9,10.0,88,30.26,4.0,South,3.5,-,N/A,,Scattered Clouds,170,2013-01-03 13:51:00
9:51 AM,18.0,12.0,78,30.27,6.0,SSW,6.9,-,N/A,,Haze,210,2013-01-03 14:51:00
10:51 AM,21.0,12.0,68,30.26,8.0,SW,9.2,-,N/A,,Clear,230,2013-01-03 15:51:00
11:51 AM,24.1,12.9,62,30.24,10.0,SW,5.8,-,N/A,,Partly Cloudy,220,2013-01-03 16:51:00
12:51 PM,28.9,12.9,51,30.22,10.0,SW,9.2,-,N/A,,Partly Cloudy,220,2013-01-03 17:51:00
1:51 PM,30.9,15.1,52,30.21,10.0,WSW,12.7,-,N/A,,Partly Cloudy,250,2013-01-03 18:51:00
2:51 PM,30.2,17.6,60,30.18,10.0,WSW,15.0,-,N/A,,Overcast,250,2013-01-03 19:51:00
3:51 PM,30.9,19.0,61,30.24,10.0,West,8.1,-,N/A,,Mostly Cloudy,280,2013-01-03 20:51:00
4:51 PM,30.0,21.0,69,30.26,10.0,WSW,11.5,-,N/A,,Mostly Cloudy,250,2013-01-03 21:51:00
5:51 PM,30.0,21.0,69,30.27,10.0,WSW,9.2,-,N/A,,Overcast,240,2013-01-03 22:51:00
6:51 PM,30.2,21.2,69,30.24,10.0,WSW,10.4,-,N/A,,Overcast,250,2013-01-03 23:51:00
7:51 PM,30.0,21.9,72,30.29,10.0,West,11.5,-,N/A,,Overcast,260,2013-01-04 00:51:00
8:51 PM,30.0,21.0,69,30.30,10.0,WSW,12.7,-,N/A,,Overcast,250,2013-01-04 01:51:00
9:15 PM,30.2,21.2,69,30.26,10.0,West,10.4,-,N/A,,Overcast,260,2013-01-04 02:15:00
9:51 PM,30.0,21.9,72,30.30,10.0,West,11.5,-,N/A,,Overcast,280,2013-01-04 02:51:00
10:51 PM,30.0,21.0,69,30.31,10.0,West,12.7,-,N/A,,Overcast,280,2013-01-04 03:51:00
11:51 PM,28.9,21.9,75,30.30,10.0,West,9.2,-,N/A,,Overcast,260,2013-01-04 04:51:00